Погода в Нижних Халбах

Россия / Хабаровский край     50°47′50″N   137°55′36″E
темп.,
°C
ветер,
м/с
пор.,
м/с
влажн.,
%
обл.,
%
осадки,
мм/ч
давл.,
гПа
погр.,
м
7 марта, вс
вс701:00−22ю2396100 0.1 102333
04:00−22ю2396100 0.1 102332
07:00−23ююв2396100 0.1 102234
10:00−18ююз4888100 0.1 1021678
13:00−15ююз5884100 0.1 1019909
16:00−13ююз5883100 0.2 1018952
19:00−16ю3492100 0.1 101884
22:00−16ююв2393100 0.1 102036
8 марта, пн
пн801:00−17ююв2394100 0.1 101930
04:00−18ю2294100 0.2 102021
07:00−18ю2295100 0.1 102022
10:00−14ююз4790100 0.1 1020542
13:00−11ююз51086100 0.1 1018795
16:00−10ююз6118491 0.2 1016853
19:00−12ю5129091 0.1 1017646
22:00−11ю4139296 0.2 1017681
9 марта, вт
вт901:00−11ю51491100 0.2 1015760
04:00−9ююз61592100 0.8 1012830
07:00−8ююз61593100 1.2 1010889
10:00−7ююз61290100 1.9 1008868
13:00−5ююз5989100 0.6 1006795
16:00−4юз3688100 0.9 1006681
19:00−6с1296100 0.2 100721
22:00−9ссв2294100 0.3 101125
10 марта, ср
ср1001:00−10с339598 0.1 101352
04:00−14с129560 0.1 101620
07:00−17юз01976 0.0 102020
10:00−10юз22895 0.0 1021210
13:00−6юз348682 0.0 1020484
16:00−4ююз588276 0.1 1019854
19:00−8ю378828 0.0 1019136
22:00−8ю3119162 0.1 1020499
11 марта, чт
чт1101:00−8ю51392100 0.2 1018727
04:00−7ююз51295100 2.2 1016695
07:00−7ююз41195100 1.6 1016643
10:00−5зюз3694100 2.5 1016476
13:00−3зсз468494 0.4 1018934
16:00−3сз697784 0.6 10201262
19:00−8зсз228315 0.1 102321
22:00−11ю12838 0.1 102621